Tracking 28091 objects as of 30-Sep-2023
HD Live streaming from Space Station
objects crossing your sky now

DELTA 1 DEB

Track DELTA 1 DEB now!
10-day predictions


NORAD ID: 5971
Int'l Code: 1967-006E
Perigee: 1,287.8 km
Apogee: 1,462.5 km
Inclination: 102.0 °
Period: 113.1 minutes
Semi major axis: 7746 km
RCS: 0.0243 m2 (small)
Launch date: January 26, 1967
Source: United States (US)
Launch site: AIR FORCE WESTERN TEST RANGE (AFWTR)

Note: This is SATELLITE DEBRIS
Your satellite tracking list
Your tracking list is empty




NASA's NSSDC Master Catalog

Two Line Element Set (TLE):
1 05971U 67006E   23272.16477448 -.00000015  00000-0  15843-3 0  9999
2 05971 101.9522 157.9196 0112799 139.7656  13.5697 12.73426916634812
Source of the keplerian elements: AFSPC